,,PressureMeas_1m,,PRMeasQMR101_1,,RHStat155_1m_1,,SRMeasQMS101R_1m,,TAStat155_1m_1,,GenWind_1,,GenWind_1,
2017-07-26, 07:00:06,VALID,917.035,VALID,0.0,VALID,95.136,VALID,52.675,VALID,19.507,VALID,278.0,VALID,0.034,
2017-07-26, 07:01:06,VALID,917.053,VALID,0.0,VALID,95.324,VALID,53.616,VALID,19.524,VALID,278.0,VALID,0.0,
2017-07-26, 07:02:06,VALID,917.069,VALID,0.0,VALID,95.239,VALID,54.132,VALID,19.537,VALID,278.0,VALID,0.0,
2017-07-26, 07:03:06,VALID,917.075,VALID,0.0,VALID,95.045,VALID,54.236,VALID,19.558,VALID,278.0,VALID,0.0,
2017-07-26, 07:04:06,VALID,917.091,VALID,0.0,VALID,94.706,VALID,53.92,VALID,19.585,VALID,278.0,VALID,0.0,
2017-07-26, 07:05:06,VALID,917.098,VALID,0.0,VALID,94.128,VALID,53.448,VALID,19.621,VALID,278.0,VALID,0.0,
2017-07-26, 07:06:06,VALID,917.107,VALID,0.0,VALID,93.958,VALID,51.97,VALID,19.654,VALID,278.0,VALID,0.0,
2017-07-26, 07:07:06,VALID,917.098,VALID,0.0,VALID,93.646,VALID,49.996,VALID,19.683,VALID,279.0,VALID,0.0,
2017-07-26, 07:08:06,VALID,917.099,VALID,0.0,VALID,93.397,VALID,48.188,VALID,19.737,VALID,304.0,VALID,0.0,
2017-07-26, 07:09:06,VALID,917.103,VALID,0.0,VALID,93.419,VALID,46.955,VALID,19.813,VALID,325.0,VALID,0.0,
2017-07-26, 07:10:06,VALID,917.118,VALID,0.0,VALID,94.256,VALID,46.157,VALID,19.857,VALID,355.0,VALID,0.0,
2017-07-26, 07:11:06,VALID,917.143,VALID,0.0,VALID,93.7,VALID,45.047,VALID,19.849,VALID,359.0,VALID,0.0,
2017-07-26, 07:12:06,VALID,917.166,VALID,0.0,VALID,93.188,VALID,44.669,VALID,19.865,VALID,354.0,VALID,0.0,
2017-07-26, 07:13:06,VALID,917.191,VALID,0.0,VALID,93.239,VALID,45.356,VALID,19.904,VALID,351.0,VALID,0.0,
2017-07-26, 07:14:06,VALID,917.204,VALID,0.0,VALID,93.284,VALID,46.681,VALID,19.925,VALID,345.0,VALID,0.143,
2017-07-26, 07:15:06,VALID,917.213,VALID,0.0,VALID,92.723,VALID,48.518,VALID,19.938,VALID,335.0,VALID,0.127,
2017-07-26, 07:16:06,VALID,917.216,VALID,0.0,VALID,91.414,VALID,50.487,VALID,19.944,VALID,318.0,VALID,0.196,
2017-07-26, 07:17:06,VALID,917.23,VALID,0.0,VALID,91.1,VALID,51.924,VALID,19.992,VALID,351.0,VALID,0.507,
2017-07-26, 07:18:06,VALID,917.259,VALID,0.0,VALID,91.375,VALID,52.697,VALID,19.998,VALID,350.0,VALID,0.88,
2017-07-26, 07:19:06,VALID,917.293,VALID,0.0,VALID,91.548,VALID,52.885,VALID,19.972,VALID,336.0,VALID,0.886,
2017-07-26, 07:20:06,VALID,917.331,VALID,0.0,VALID,91.599,VALID,52.483,VALID,19.935,VALID,324.0,VALID,0.559,
2017-07-26, 07:21:06,VALID,917.368,VALID,0.0,VALID,91.86,VALID,51.928,VALID,19.905,VALID,320.0,VALID,0.502,
2017-07-26, 07:22:06,VALID,917.4,VALID,0.0,VALID,92.307,VALID,51.193,VALID,19.881,VALID,335.0,VALID,0.168,
2017-07-26, 07:23:06,VALID,917.445,VALID,0.0,VALID,92.431,VALID,50.745,VALID,19.88,VALID,330.0,VALID,0.233,
2017-07-26, 07:24:06,VALID,917.51,VALID,0.0,VALID,92.619,VALID,50.853,VALID,19.887,VALID,315.0,VALID,0.39,
2017-07-26, 07:25:06,VALID,917.547,VALID,0.0,VALID,92.173,VALID,51.287,VALID,19.869,VALID,306.0,VALID,0.237,
2017-07-26, 07:26:06,VALID,917.557,VALID,0.0,VALID,93.19,VALID,52.294,VALID,19.902,VALID,275.0,VALID,0.184,
2017-07-26, 07:27:06,VALID,917.57,VALID,0.0,VALID,93.932,VALID,53.736,VALID,19.906,VALID,266.0,VALID,0.154,
2017-07-26, 07:28:06,VALID,917.564,VALID,0.0,VALID,93.911,VALID,55.484,VALID,19.889,VALID,266.0,VALID,0.068,
2017-07-26, 07:29:06,VALID,917.565,VALID,0.0,VALID,94.521,VALID,57.525,VALID,19.906,VALID,266.0,VALID,0.0,
2017-07-26, 07:30:06,VALID,917.549,VALID,0.0,VALID,93.744,VALID,59.736,VALID,19.913,VALID,352.0,VALID,0.441,
2017-07-26, 07:31:06,VALID,917.568,VALID,0.0,VALID,91.873,VALID,61.926,VALID,19.905,VALID,353.0,VALID,0.481,
2017-07-26, 07:32:06,VALID,917.585,VALID,0.0,VALID,92.273,VALID,63.93,VALID,19.944,VALID,349.0,VALID,0.467,
2017-07-26, 07:33:06,VALID,917.6,VALID,0.0,VALID,92.085,VALID,65.526,VALID,19.98,VALID,327.0,VALID,0.179,
2017-07-26, 07:34:06,VALID,917.586,VALID,0.0,VALID,92.64,VALID,67.098,VALID,20.022,VALID,272.0,VALID,0.073,
2017-07-26, 07:35:06,VALID,917.593,VALID,0.0,VALID,92.319,VALID,68.913,VALID,20.049,VALID,304.0,VALID,0.312,
2017-07-26, 07:36:06,VALID,917.599,VALID,0.0,VALID,92.908,VALID,71.172,VALID,20.036,VALID,299.0,VALID,0.057,
2017-07-26, 07:37:06,VALID,917.605,VALID,0.0,VALID,92.888,VALID,73.237,VALID,20.028,VALID,324.0,VALID,0.123,
2017-07-26, 07:38:06,VALID,917.62,VALID,0.0,VALID,91.974,VALID,74.484,VALID,20.027,VALID,6.0,VALID,0.715,
2017-07-26, 07:39:06,VALID,917.646,VALID,0.0,VALID,89.747,VALID,75.305,VALID,20.027,VALID,356.0,VALID,0.884,
2017-07-26, 07:40:06,VALID,917.691,VALID,0.0,VALID,89.615,VALID,76.779,VALID,20.07,VALID,351.0,VALID,1.081,
2017-07-26, 07:41:06,VALID,917.73,VALID,0.0,VALID,90.357,VALID,78.879,VALID,20.108,VALID,348.0,VALID,0.798,
2017-07-26, 07:42:06,VALID,917.743,VALID,0.0,VALID,89.313,VALID,79.984,VALID,20.106,VALID,355.0,VALID,1.01,
2017-07-26, 07:43:06,VALID,917.755,VALID,0.0,VALID,88.114,VALID,80.686,VALID,20.108,VALID,343.0,VALID,0.826,
2017-07-26, 07:44:06,VALID,917.782,VALID,0.0,VALID,87.942,VALID,81.789,VALID,20.155,VALID,341.0,VALID,0.506,
2017-07-26, 07:45:06,VALID,917.793,VALID,0.0,VALID,88.48,VALID,83.598,VALID,20.182,VALID,343.0,VALID,0.246,
2017-07-26, 07:46:06,VALID,917.802,VALID,0.0,VALID,89.276,VALID,86.516,VALID,20.191,VALID,20.0,VALID,0.494,
2017-07-26, 07:47:06,VALID,917.798,VALID,0.0,VALID,89.922,VALID,89.561,VALID,20.182,VALID,16.0,VALID,0.843,
2017-07-26, 07:48:06,VALID,917.809,VALID,0.0,VALID,89.409,VALID,93.153,VALID,20.216,VALID,7.0,VALID,0.823,
2017-07-26, 07:49:06,VALID,917.812,VALID,0.0,VALID,89.768,VALID,98.243,VALID,20.28,VALID,352.0,VALID,0.635,
2017-07-26, 07:50:06,VALID,917.826,VALID,0.0,VALID,88.827,VALID,101.084,VALID,20.312,VALID,315.0,VALID,0.16,
2017-07-26, 07:51:06,VALID,917.813,VALID,0.0,VALID,88.834,VALID,105.891,VALID,20.369,VALID,347.0,VALID,0.199,
2017-07-26, 07:52:06,VALID,917.795,VALID,0.0,VALID,88.28,VALID,112.853,VALID,20.403,VALID,336.0,VALID,0.789,
2017-07-26, 07:53:06,VALID,917.768,VALID,0.0,VALID,88.499,VALID,121.012,VALID,20.432,VALID,353.0,VALID,0.451,
2017-07-26, 07:54:06,VALID,917.751,VALID,0.0,VALID,90.101,VALID,131.046,VALID,20.475,VALID,310.0,VALID,0.28,
2017-07-26, 07:55:06,VALID,917.722,VALID,0.0,VALID,90.801,VALID,142.956,VALID,20.462,VALID,302.0,VALID,0.282,
2017-07-26, 07:56:06,VALID,917.701,VALID,0.0,VALID,90.678,VALID,153.898,VALID,20.422,VALID,331.0,VALID,0.696,
2017-07-26, 07:57:06,VALID,917.68,VALID,0.0,VALID,88.852,VALID,162.612,VALID,20.444,VALID,341.0,VALID,1.103,
2017-07-26, 07:58:06,VALID,917.655,VALID,0.0,VALID,89.132,VALID,170.221,VALID,20.532,VALID,351.0,VALID,0.688,
2017-07-26, 07:59:06,VALID,917.641,VALID,0.0,VALID,89.806,VALID,177.89,VALID,20.606,VALID,358.0,VALID,0.705,
2017-07-26, 08:00:06,VALID,917.628,VALID,0.0,VALID,90.525,VALID,186.748,VALID,20.688,VALID,336.0,VALID,0.507,
2017-07-26, 08:01:06,VALID,917.629,VALID,0.0,VALID,90.964,VALID,196.367,VALID,20.706,VALID,299.0,VALID,0.595,
2017-07-26, 08:02:06,VALID,917.632,VALID,0.0,VALID,91.367,VALID,208.43,VALID,20.644,VALID,307.0,VALID,0.652,
2017-07-26, 08:03:06,VALID,917.627,VALID,0.0,VALID,91.254,VALID,229.831,VALID,20.679,VALID,5.0,VALID,0.755,
2017-07-26, 08:04:06,VALID,917.62,VALID,0.0,VALID,90.592,VALID,232.714,VALID,20.753,VALID,303.0,VALID,0.141,
2017-07-26, 08:05:06,VALID,917.619,VALID,0.0,VALID,90.217,VALID,242.168,VALID,20.812,VALID,297.0,VALID,0.0,
2017-07-26, 08:06:06,VALID,917.627,VALID,0.0,VALID,90.486,VALID,252.382,VALID,20.839,VALID,304.0,VALID,0.309,
2017-07-26, 08:07:06,VALID,917.65,VALID,0.0,VALID,90.212,VALID,256.631,VALID,20.874,VALID,328.0,VALID,0.581,
2017-07-26, 08:08:06,VALID,917.672,VALID,0.0,VALID,89.444,VALID,261.151,VALID,20.942,VALID,335.0,VALID,0.74,
2017-07-26, 08:09:06,VALID,917.698,VALID,0.0,VALID,88.639,VALID,258.522,VALID,21.051,VALID,360.0,VALID,0.673,
2017-07-26, 08:10:06,VALID,917.737,VALID,0.0,VALID,88.795,VALID,251.074,VALID,21.165,VALID,340.0,VALID,0.347,
2017-07-26, 08:11:06,VALID,917.765,VALID,0.0,VALID,88.265,VALID,240.584,VALID,21.274,VALID,359.0,VALID,0.404,
2017-07-26, 08:12:06,VALID,917.801,VALID,0.0,VALID,87.097,VALID,228.522,VALID,21.361,VALID,340.0,VALID,0.979,
2017-07-26, 08:13:06,VALID,917.837,VALID,0.0,VALID,86.647,VALID,216.608,VALID,21.411,VALID,354.0,VALID,0.593,
2017-07-26, 08:14:06,VALID,917.853,VALID,0.0,VALID,87.675,VALID,207.258,VALID,21.466,VALID,338.0,VALID,0.411,
2017-07-26, 08:15:06,VALID,917.874,VALID,0.0,VALID,86.452,VALID,199.587,VALID,21.481,VALID,332.0,VALID,0.42,
2017-07-26, 08:16:06,VALID,917.895,VALID,0.0,VALID,86.572,VALID,192.387,VALID,21.488,VALID,341.0,VALID,0.895,
2017-07-26, 08:17:06,VALID,917.917,VALID,0.0,VALID,85.95,VALID,187.139,VALID,21.497,VALID,349.0,VALID,0.906,
2017-07-26, 08:18:06,VALID,917.95,VALID,0.0,VALID,86.448,VALID,181.057,VALID,21.521,VALID,321.0,VALID,0.327,
2017-07-26, 08:19:06,VALID,917.98,VALID,0.0,VALID,86.082,VALID,173.898,VALID,21.549,VALID,280.0,VALID,0.223,
2017-07-26, 08:20:06,VALID,918.002,VALID,0.0,VALID,86.318,VALID,166.043,VALID,21.59,VALID,9.0,VALID,0.547,
2017-07-26, 08:21:06,VALID,918.044,VALID,0.0,VALID,85.518,VALID,160.235,VALID,21.622,VALID,9.0,VALID,0.835,
2017-07-26, 08:22:06,VALID,918.055,VALID,0.0,VALID,85.843,VALID,155.281,VALID,21.677,VALID,294.0,VALID,0.271,
2017-07-26, 08:23:06,VALID,918.052,VALID,0.0,VALID,84.797,VALID,155.452,VALID,21.685,VALID,280.0,VALID,0.177,
2017-07-26, 08:24:06,VALID,918.037,VALID,0.0,VALID,84.89,VALID,156.533,VALID,21.664,VALID,311.0,VALID,0.0,
2017-07-26, 08:25:06,VALID,918.011,VALID,0.0,VALID,85.262,VALID,157.87,VALID,21.671,VALID,4.0,VALID,0.298,
2017-07-26, 08:26:06,VALID,917.99,VALID,0.0,VALID,84.862,VALID,160.615,VALID,21.716,VALID,357.0,VALID,0.694,
2017-07-26, 08:27:06,VALID,917.974,VALID,0.0,VALID,85.222,VALID,162.705,VALID,21.73,VALID,3.0,VALID,0.097,
2017-07-26, 08:28:06,VALID,917.952,VALID,0.0,VALID,85.464,VALID,160.777,VALID,21.782,VALID,358.0,VALID,0.103,
2017-07-26, 08:29:06,VALID,917.939,VALID,0.0,VALID,85.798,VALID,160.331,VALID,21.852,VALID,17.0,VALID,0.291,
2017-07-26, 08:30:06,VALID,917.931,VALID,0.0,VALID,84.741,VALID,156.337,VALID,21.9,VALID,10.0,VALID,0.08,
2017-07-26, 08:31:06,VALID,917.936,VALID,0.0,VALID,85.068,VALID,153.513,VALID,21.931,VALID,10.0,VALID,0.014,
2017-07-26, 08:32:06,VALID,917.939,VALID,0.0,VALID,84.726,VALID,152.456,VALID,21.951,VALID,350.0,VALID,0.0,
2017-07-26, 08:33:06,VALID,917.961,VALID,0.0,VALID,84.598,VALID,151.015,VALID,22.01,VALID,342.0,VALID,0.0,
2017-07-26, 08:34:06,VALID,917.974,VALID,0.0,VALID,84.894,VALID,148.11,VALID,22.071,VALID,342.0,VALID,0.0,
2017-07-26, 08:35:06,VALID,918.0,VALID,0.0,VALID,85.263,VALID,149.181,VALID,22.135,VALID,345.0,VALID,0.0,
2017-07-26, 08:36:06,VALID,918.013,VALID,0.0,VALID,84.381,VALID,159.148,VALID,22.221,VALID,345.0,VALID,0.0,
2017-07-26, 08:37:06,VALID,918.039,VALID,0.0,VALID,83.453,VALID,170.18,VALID,22.244,VALID,277.0,VALID,0.0,
2017-07-26, 08:38:06,VALID,918.059,VALID,0.0,VALID,83.742,VALID,181.988,VALID,22.127,VALID,312.0,VALID,0.325,
2017-07-26, 08:39:06,VALID,918.069,VALID,0.0,VALID,84.647,VALID,193.147,VALID,21.975,VALID,326.0,VALID,0.209,
2017-07-26, 08:40:06,VALID,918.085,VALID,0.0,VALID,85.436,VALID,207.122,VALID,21.913,VALID,342.0,VALID,0.03,
2017-07-26, 08:41:06,VALID,918.089,VALID,0.0,VALID,86.266,VALID,236.915,VALID,21.952,VALID,30.0,VALID,0.143,
2017-07-26, 08:42:06,VALID,918.098,VALID,0.0,VALID,85.972,VALID,266.932,VALID,22.046,VALID,338.0,VALID,0.12,
2017-07-26, 08:43:06,VALID,918.101,VALID,0.0,VALID,85.004,VALID,284.321,VALID,22.2,VALID,30.0,VALID,0.065,
2017-07-26, 08:44:06,VALID,918.115,VALID,0.0,VALID,85.39,VALID,292.1,VALID,22.385,VALID,2.0,VALID,0.0,
2017-07-26, 08:45:06,VALID,918.113,VALID,0.0,VALID,83.713,VALID,294.891,VALID,22.513,VALID,359.0,VALID,0.349,
2017-07-26, 08:46:06,VALID,918.117,VALID,0.0,VALID,83.651,VALID,291.13,VALID,22.54,VALID,342.0,VALID,0.794,
2017-07-26, 08:47:06,VALID,918.101,VALID,0.0,VALID,83.569,VALID,282.757,VALID,22.446,VALID,336.0,VALID,0.445,
2017-07-26, 08:48:06,VALID,918.086,VALID,0.0,VALID,83.876,VALID,276.097,VALID,22.416,VALID,325.0,VALID,0.315,
2017-07-26, 08:49:06,VALID,918.054,VALID,0.0,VALID,84.77,VALID,274.39,VALID,22.407,VALID,340.0,VALID,0.349,
2017-07-26, 08:50:06,VALID,918.04,VALID,0.0,VALID,84.533,VALID,270.742,VALID,22.465,VALID,359.0,VALID,0.489,
2017-07-26, 08:51:06,VALID,918.022,VALID,0.0,VALID,84.32,VALID,262.045,VALID,22.475,VALID,11.0,VALID,0.219,
2017-07-26, 08:52:06,VALID,918.01,VALID,0.0,VALID,84.143,VALID,251.224,VALID,22.525,VALID,282.0,VALID,0.151,
2017-07-26, 08:53:06,VALID,918.007,VALID,0.0,VALID,83.301,VALID,242.337,VALID,22.497,VALID,316.0,VALID,0.393,
2017-07-26, 08:54:06,VALID,918.0,VALID,0.0,VALID,84.471,VALID,235.605,VALID,22.407,VALID,295.0,VALID,0.462,
2017-07-26, 08:55:06,VALID,917.99,VALID,0.0,VALID,84.441,VALID,227.564,VALID,22.311,VALID,307.0,VALID,0.303,
2017-07-26, 08:56:06,VALID,917.983,VALID,0.0,VALID,85.56,VALID,220.618,VALID,22.304,VALID,13.0,VALID,0.455,
2017-07-26, 08:57:06,VALID,917.978,VALID,0.0,VALID,84.99,VALID,216.468,VALID,22.34,VALID,327.0,VALID,0.26,
2017-07-26, 08:58:06,VALID,917.957,VALID,0.0,VALID,85.319,VALID,215.421,VALID,22.354,VALID,359.0,VALID,0.471,
2017-07-26, 08:59:06,VALID,917.947,VALID,0.0,VALID,86.149,VALID,212.586,VALID,22.357,VALID,332.0,VALID,0.234,
2017-07-26, 09:00:06,VALID,917.945,VALID,0.0,VALID,86.14,VALID,209.214,VALID,22.398,VALID,357.0,VALID,0.437,
2017-07-26, 09:01:06,VALID,917.938,VALID,0.0,VALID,86.074,VALID,206.461,VALID,22.463,VALID,339.0,VALID,0.732,
2017-07-26, 09:02:06,VALID,917.93,VALID,0.0,VALID,84.914,VALID,204.98,VALID,22.374,VALID,349.0,VALID,1.06,
2017-07-26, 09:03:06,VALID,917.934,VALID,0.0,VALID,85.185,VALID,204.005,VALID,22.338,VALID,342.0,VALID,0.398,
2017-07-26, 09:04:06,VALID,917.941,VALID,0.0,VALID,85.564,VALID,204.596,VALID,22.301,VALID,333.0,VALID,0.233,
2017-07-26, 09:05:06,VALID,917.94,VALID,0.0,VALID,86.377,VALID,208.533,VALID,22.29,VALID,3.0,VALID,0.428,
2017-07-26, 09:06:06,VALID,917.958,VALID,0.0,VALID,86.284,VALID,213.012,VALID,22.369,VALID,14.0,VALID,0.438,
2017-07-26, 09:07:06,VALID,917.968,VALID,0.0,VALID,85.51,VALID,215.071,VALID,22.456,VALID,25.0,VALID,0.789,
2017-07-26, 09:08:06,VALID,917.976,VALID,0.0,VALID,85.064,VALID,225.878,VALID,22.443,VALID,37.0,VALID,0.241,
2017-07-26, 09:09:06,VALID,917.982,VALID,0.0,VALID,85.284,VALID,231.274,VALID,22.512,VALID,343.0,VALID,0.318,
2017-07-26, 09:10:06,VALID,918.002,VALID,0.0,VALID,85.335,VALID,240.882,VALID,22.492,VALID,8.0,VALID,0.618,
2017-07-26, 09:11:06,VALID,918.021,VALID,0.0,VALID,86.773,VALID,254.075,VALID,22.505,VALID,8.0,VALID,0.312,
2017-07-26, 09:12:06,VALID,918.056,VALID,0.0,VALID,85.623,VALID,267.346,VALID,22.593,VALID,281.0,VALID,0.036,
2017-07-26, 09:13:06,VALID,918.087,VALID,0.0,VALID,85.82,VALID,278.621,VALID,22.67,VALID,347.0,VALID,0.608,
2017-07-26, 09:14:06,VALID,918.129,VALID,0.0,VALID,85.543,VALID,285.103,VALID,22.738,VALID,22.0,VALID,0.939,
2017-07-26, 09:15:06,VALID,918.149,VALID,0.0,VALID,85.201,VALID,283.237,VALID,22.836,VALID,22.0,VALID,0.563,
2017-07-26, 09:16:06,VALID,918.174,VALID,0.0,VALID,85.37,VALID,278.277,VALID,22.909,VALID,21.0,VALID,0.633,
2017-07-26, 09:17:06,VALID,918.188,VALID,0.0,VALID,84.689,VALID,275.917,VALID,22.962,VALID,10.0,VALID,0.701,
2017-07-26, 09:18:06,VALID,918.199,VALID,0.0,VALID,83.69,VALID,274.56,VALID,22.999,VALID,351.0,VALID,0.416,
2017-07-26, 09:19:06,VALID,918.22,VALID,0.0,VALID,83.123,VALID,271.068,VALID,23.015,VALID,315.0,VALID,0.073,
2017-07-26, 09:20:06,VALID,918.231,VALID,0.0,VALID,82.483,VALID,264.453,VALID,22.944,VALID,270.0,VALID,0.232,
2017-07-26, 09:21:06,VALID,918.261,VALID,0.0,VALID,82.816,VALID,252.298,VALID,22.838,VALID,263.0,VALID,0.277,
2017-07-26, 09:22:06,VALID,918.278,VALID,0.0,VALID,83.266,VALID,240.171,VALID,22.623,VALID,256.0,VALID,0.233,
2017-07-26, 09:23:06,VALID,918.285,VALID,0.0,VALID,84.16,VALID,236.031,VALID,22.492,VALID,256.0,VALID,0.279,
2017-07-26, 09:24:06,VALID,918.299,VALID,0.0,VALID,84.252,VALID,239.191,VALID,22.412,VALID,256.0,VALID,0.077,
2017-07-26, 09:25:06,VALID,918.306,VALID,0.0,VALID,84.907,VALID,245.589,VALID,22.432,VALID,248.0,VALID,0.543,
2017-07-26, 09:26:06,VALID,918.303,VALID,0.0,VALID,84.735,VALID,250.513,VALID,22.402,VALID,266.0,VALID,0.156,
2017-07-26, 09:27:06,VALID,918.299,VALID,0.0,VALID,84.431,VALID,250.121,VALID,22.427,VALID,261.0,VALID,0.282,
2017-07-26, 09:28:06,VALID,918.295,VALID,0.0,VALID,84.86,VALID,245.688,VALID,22.4,VALID,250.0,VALID,0.796,
2017-07-26, 09:29:06,VALID,918.283,VALID,0.0,VALID,84.282,VALID,242.742,VALID,22.347,VALID,265.0,VALID,0.55,
2017-07-26, 09:30:06,VALID,918.272,VALID,0.0,VALID,85.357,VALID,240.002,VALID,22.32,VALID,268.0,VALID,0.356,
2017-07-26, 09:31:06,VALID,918.257,VALID,0.0,VALID,85.071,VALID,238.636,VALID,22.332,VALID,276.0,VALID,0.407,
2017-07-26, 09:32:06,VALID,918.246,VALID,0.0,VALID,84.964,VALID,245.373,VALID,22.311,VALID,290.0,VALID,0.237,
2017-07-26, 09:33:06,VALID,918.237,VALID,0.0,VALID,86.62,VALID,245.741,VALID,22.335,VALID,322.0,VALID,0.343,
2017-07-26, 09:34:06,VALID,918.223,VALID,0.0,VALID,86.58,VALID,247.056,VALID,22.474,VALID,1.0,VALID,0.283,
2017-07-26, 09:35:06,VALID,918.211,VALID,0.0,VALID,85.651,VALID,249.159,VALID,22.597,VALID,2.0,VALID,0.303,
2017-07-26, 09:36:06,VALID,918.194,VALID,0.0,VALID,85.256,VALID,241.222,VALID,22.704,VALID,343.0,VALID,0.313,
2017-07-26, 09:37:06,VALID,918.174,VALID,0.0,VALID,85.126,VALID,248.655,VALID,22.862,VALID,347.0,VALID,0.355,
2017-07-26, 09:38:06,VALID,918.16,VALID,0.0,VALID,82.018,VALID,261.69,VALID,22.961,VALID,307.0,VALID,0.481,
2017-07-26, 09:39:06,VALID,918.139,VALID,0.0,VALID,83.395,VALID,290.39,VALID,23.053,VALID,1.0,VALID,1.199,
2017-07-26, 09:40:06,VALID,918.119,VALID,0.0,VALID,82.56,VALID,263.793,VALID,22.848,VALID,359.0,VALID,1.161,
2017-07-26, 09:41:06,VALID,918.123,VALID,0.0,VALID,83.571,VALID,237.834,VALID,22.722,VALID,353.0,VALID,1.013,
2017-07-26, 09:42:06,VALID,918.13,VALID,0.0,VALID,84.871,VALID,225.482,VALID,22.738,VALID,15.0,VALID,0.905,
2017-07-26, 09:43:06,VALID,918.139,VALID,0.0,VALID,83.868,VALID,206.721,VALID,22.824,VALID,4.0,VALID,1.133,
2017-07-26, 09:44:06,VALID,918.174,VALID,0.0,VALID,83.363,VALID,185.26,VALID,22.829,VALID,15.0,VALID,1.098,
2017-07-26, 09:45:06,VALID,918.21,VALID,0.0,VALID,83.829,VALID,184.507,VALID,22.806,VALID,10.0,VALID,0.534,
2017-07-26, 09:46:06,VALID,918.221,VALID,0.0,VALID,84.63,VALID,196.792,VALID,22.824,VALID,20.0,VALID,0.829,
2017-07-26, 09:47:06,VALID,918.245,VALID,0.0,VALID,84.981,VALID,213.972,VALID,22.97,VALID,360.0,VALID,1.287,
2017-07-26, 09:48:06,VALID,918.262,VALID,0.0,VALID,83.498,VALID,236.009,VALID,22.864,VALID,337.0,VALID,0.793,
2017-07-26, 09:49:06,VALID,918.245,VALID,0.0,VALID,83.93,VALID,260.257,VALID,22.75,VALID,19.0,VALID,1.396,
2017-07-26, 09:50:06,VALID,918.232,VALID,0.0,VALID,83.783,VALID,276.748,VALID,22.725,VALID,15.0,VALID,0.652,
2017-07-26, 09:51:06,VALID,918.222,VALID,0.0,VALID,84.336,VALID,299.829,VALID,22.829,VALID,29.0,VALID,0.21,
2017-07-26, 09:52:06,VALID,918.211,VALID,0.0,VALID,84.139,VALID,417.918,VALID,23.052,VALID,9.0,VALID,0.171,
2017-07-26, 09:53:06,VALID,918.212,VALID,0.0,VALID,83.321,VALID,535.302,VALID,23.331,VALID,341.0,VALID,0.346,
2017-07-26, 09:54:06,VALID,918.205,VALID,0.0,VALID,81.208,VALID,423.913,VALID,23.497,VALID,14.0,VALID,0.391,
2017-07-26, 09:55:06,VALID,918.216,VALID,0.0,VALID,81.419,VALID,454.826,VALID,23.417,VALID,17.0,VALID,0.902,
2017-07-26, 09:56:06,VALID,918.216,VALID,0.0,VALID,81.553,VALID,569.4,VALID,23.349,VALID,22.0,VALID,0.664,
2017-07-26, 09:57:06,VALID,918.217,VALID,0.0,VALID,81.516,VALID,483.164,VALID,23.448,VALID,9.0,VALID,1.138,
2017-07-26, 09:58:06,VALID,918.232,VALID,0.0,VALID,79.631,VALID,486.431,VALID,23.449,VALID,329.0,VALID,0.475,
2017-07-26, 09:59:06,VALID,918.227,VALID,0.0,VALID,80.342,VALID,451.513,VALID,23.356,VALID,8.0,VALID,0.855,
2017-07-26, 10:00:06,VALID,918.241,VALID,0.0,VALID,79.014,VALID,435.738,VALID,23.44,VALID,326.0,VALID,1.006,
2017-07-26, 10:01:06,VALID,918.244,VALID,0.0,VALID,78.792,VALID,453.026,VALID,23.471,VALID,18.0,VALID,0.715,
2017-07-26, 10:02:06,VALID,918.232,VALID,0.0,VALID,78.541,VALID,484.204,VALID,23.661,VALID,7.0,VALID,0.702,
2017-07-26, 10:03:06,VALID,918.206,VALID,0.0,VALID,78.024,VALID,507.884,VALID,23.801,VALID,7.0,VALID,1.727,
2017-07-26, 10:04:06,VALID,918.185,VALID,0.0,VALID,77.639,VALID,463.634,VALID,23.774,VALID,12.0,VALID,1.426,
2017-07-26, 10:05:06,VALID,918.17,VALID,0.0,VALID,78.727,VALID,590.43,VALID,23.902,VALID,25.0,VALID,1.355,
2017-07-26, 10:06:06,VALID,918.14,VALID,0.0,VALID,76.804,VALID,696.469,VALID,23.951,VALID,20.0,VALID,1.895,
2017-07-26, 10:07:06,VALID,918.129,VALID,0.0,VALID,75.054,VALID,402.5,VALID,23.979,VALID,42.0,VALID,1.672,
2017-07-26, 10:08:06,VALID,918.141,VALID,0.0,VALID,74.722,VALID,386.751,VALID,24.052,VALID,34.0,VALID,0.635,
2017-07-26, 10:09:06,VALID,918.135,VALID,0.0,VALID,74.667,VALID,395.23,VALID,24.098,VALID,285.0,VALID,0.012,
2017-07-26, 10:10:06,VALID,918.126,VALID,0.0,VALID,75.293,VALID,428.618,VALID,24.145,VALID,309.0,VALID,0.387,
2017-07-26, 10:11:06,VALID,918.142,VALID,0.0,VALID,74.436,VALID,478.425,VALID,24.179,VALID,18.0,VALID,0.788,
2017-07-26, 10:12:06,VALID,918.155,VALID,0.0,VALID,75.11,VALID,612.867,VALID,24.303,VALID,29.0,VALID,0.622,
2017-07-26, 10:13:06,VALID,918.186,VALID,0.0,VALID,73.411,VALID,730.249,VALID,24.557,VALID,354.0,VALID,1.098,
2017-07-26, 10:14:06,VALID,918.208,VALID,0.0,VALID,70.801,VALID,606.557,VALID,24.607,VALID,283.0,VALID,0.824,
2017-07-26, 10:15:06,VALID,918.242,VALID,0.0,VALID,72.185,VALID,668.283,VALID,24.441,VALID,286.0,VALID,0.993,
2017-07-26, 10:16:06,VALID,918.264,VALID,0.0,VALID,74.645,VALID,564.617,VALID,24.303,VALID,347.0,VALID,0.565,
2017-07-26, 10:17:06,VALID,918.281,VALID,0.0,VALID,75.416,VALID,490.295,VALID,24.475,VALID,340.0,VALID,0.382,
2017-07-26, 10:18:06,VALID,918.294,VALID,0.0,VALID,72.775,VALID,477.215,VALID,24.668,VALID,352.0,VALID,0.753,
2017-07-26, 10:19:06,VALID,918.297,VALID,0.0,VALID,72.712,VALID,461.974,VALID,24.771,VALID,18.0,VALID,0.461,
2017-07-26, 10:20:06,VALID,918.284,VALID,0.0,VALID,73.992,VALID,408.75,VALID,24.935,VALID,20.0,VALID,0.147,
2017-07-26, 10:21:06,VALID,918.261,VALID,0.0,VALID,72.488,VALID,399.277,VALID,25.153,VALID,291.0,VALID,0.164,
2017-07-26, 10:22:06,VALID,918.242,VALID,0.0,VALID,72.067,VALID,400.425,VALID,25.203,VALID,261.0,VALID,0.229,
2017-07-26, 10:23:06,VALID,918.199,VALID,0.0,VALID,72.067,VALID,405.037,VALID,25.123,VALID,295.0,VALID,0.225,
2017-07-26, 10:24:06,VALID,918.167,VALID,0.0,VALID,73.68,VALID,411.311,VALID,25.126,VALID,8.0,VALID,0.286,
2017-07-26, 10:25:06,VALID,918.143,VALID,0.0,VALID,73.05,VALID,425.254,VALID,25.153,VALID,296.0,VALID,0.4,
2017-07-26, 10:26:06,VALID,918.113,VALID,0.0,VALID,69.199,VALID,448.774,VALID,25.142,VALID,357.0,VALID,0.23,
2017-07-26, 10:27:06,VALID,918.109,VALID,0.0,VALID,70.787,VALID,484.505,VALID,25.269,VALID,30.0,VALID,0.938,
2017-07-26, 10:28:06,VALID,918.092,VALID,0.0,VALID,71.673,VALID,656.396,VALID,25.33,VALID,18.0,VALID,1.135,
2017-07-26, 10:29:06,VALID,918.102,VALID,0.0,VALID,72.624,VALID,465.695,VALID,25.331,VALID,341.0,VALID,0.641,
2017-07-26, 10:30:06,VALID,918.097,VALID,0.0,VALID,69.724,VALID,452.246,VALID,25.296,VALID,18.0,VALID,0.42,
2017-07-26, 10:31:06,VALID,918.098,VALID,0.0,VALID,71.085,VALID,438.586,VALID,25.248,VALID,353.0,VALID,0.711,
2017-07-26, 10:32:06,VALID,918.087,VALID,0.0,VALID,69.897,VALID,427.504,VALID,25.103,VALID,20.0,VALID,0.942,
2017-07-26, 10:33:06,VALID,918.091,VALID,0.0,VALID,71.816,VALID,429.631,VALID,24.932,VALID,20.0,VALID,0.692,
2017-07-26, 10:34:06,VALID,918.08,VALID,0.0,VALID,72.367,VALID,443.337,VALID,25.039,VALID,25.0,VALID,0.988,
2017-07-26, 10:35:06,VALID,918.083,VALID,0.0,VALID,72.806,VALID,456.043,VALID,25.059,VALID,16.0,VALID,0.973,
2017-07-26, 10:36:06,VALID,918.071,VALID,0.0,VALID,72.966,VALID,467.041,VALID,25.087,VALID,21.0,VALID,1.838,
2017-07-26, 10:37:06,VALID,918.075,VALID,0.0,VALID,71.74,VALID,445.603,VALID,24.955,VALID,7.0,VALID,1.554,